DELTA 1 DEB, 27720

Orbit data source: Space-Track

DELTA 1 DEB, 27720 is space debris in SSO originally from a launch on Fri, 22 Jan 1965 UTC launched from the Air Force Eastern Test Range (AFETR). Debris objects in space refer to the collection of defunct objects orbiting the Earth. Examples of debris include non-operational satellites, rocket bodies, and fragments generated from explosions, collisions, or faulty payload assembly.

Loading next visibility...
Identifier
27720, 1965-004E
Orbit
SSO
Last TLE update
2 days ago
Origin
Manufacturer
Unknown
Mission
Spacecraft
Bus & Motor
Unknown
Mass
Unknown
Launch date (UTC)
1965-01-22 (60 years ago)
Launch vehicle
Unknown
Launch site
Air Force Eastern Test Range (AFETR)
Object type
Payload
Rocket body
Debris
Shape & HBR
Unknown
Radar Cross Section
Small (<0.1 m²)

Expand to show TLE details & history

TLE from 2 days ago
0 DELTA 1 DEB
1 27720U 65004E   25180.41611154 -.00000094  00000-0 -10730-3 0  9991
2 27720  96.4874 232.4481 1168138  46.4287 322.7979 12.09190130472571
Epoch: 2025-06-29T09:59Z
TLE epoch observation values (Epoch: 2025-06-29T09:59:12.037Z)
Latitude
0.00001°
Longitude
164.90736°
Altitude
942.669 km
Speed
7.696 km/s
True Right ascension
15h 29m 47s
True Declination
0° 00' 00"
Sunlit
Object was in full shadow at epoch
Visualization orbit readout
Latitude
-21.17406°
Longitude
168.40392°
Altitude
1,145.762 km
Speed
7.504 km/s
Apparent Right ascension
12h 47m 53s
Apparent Declination
-50° 40' 00"
Sunlit
Object is in full shadow
Visualization observer readout
Local Sidereal Time
19:11:19
Azimuth
228.813° WSW
Elevation
-33.089°
Doppler factor
1
Orbital elements
Apogee altitude
2,573.596 km
Perigee altitude
700.972 km
Semi-major axis
8,015.421 km
Eccentricity
0.11681
Inclination
96.4874°
RAAN
232.4481°
Arg. of periapsis
46.4287°
True anomaly
Unknown
Mean anomaly
322.7979°
Eccentric anomaly
Unknown
Mean motion
3.0245 °/min
Orbital period
119.03 mins
BSTAR
-0.0001073
Loading maneuver chart data...
Loading SW <> Apogee altitude chart data...
Loading historical data...
Loading historical data...
Loading historical data...
Loading historical data...
Loading historical data...
Loading historical data...
Loading historical data...
Other satellites on launch #4 in the year 1965 (1965-01-22 UTC)

DELTA 1 DEB Visibility forecast

Observer location: undefined°, undefined°

Span
Click to sort rows by Start time (UTC) header in descending order
Start Az.
Max El. time (UTC)
Max El. Az.
Max El.
End time (UTC)
End Az.
11 mins2025-07-01 14:12:20.884Z54.886° ENE2025-07-01 14:17:20.884Z91.919° ESE17.53°2025-07-01 14:23:20.884Z127.322° SE
18 mins2025-07-01 16:08:20.884Z11.372° NNE2025-07-01 16:15:20.884Z174.323° S44.856°2025-07-01 16:26:20.884Z192.845° SSW
10 mins2025-07-01 18:08:20.884Z327.156° NNW2025-07-01 18:12:20.884Z293.426° NW19.049°2025-07-01 18:18:20.884Z255.422° W
7 mins2025-07-02 03:38:20.884Z178.109° S2025-07-02 03:41:20.884Z273.139° WNW43.731°2025-07-02 03:45:20.884Z344.949° N
|